Regional Weather Roundup
Issued by NWS

Home | Current Version | Previous Version | Graphics & Text | Print | Product List | Glossary On
Versions: 1 2 3 4 5 6 7 8 9 10 11 12 13 14 15 16 17 18 19 20 21 22 23 24 25 26 27 28 29 30 31 32 33 34 35 36 37 38 39 40 41 42 43 44 45 46 47 48 49 50
000
ASUS43 KLMK 110010
RWRKY
KENTUCKY REGIONAL WEATHER ROUNDUP
NATIONAL WEATHER SERVICE LOUISVILLE KY
800 PM EDT THU JUL 10 2014

NOTE "FAIR" INDICATES FEW OR NO CLOUDS BELOW 12,000 FEET
WITH NO SIGNIFICANT WEATHER AND/OR OBSTRUCTIONS TO VISIBILITY.

KYZ001>023-026-027-061>063-070>075-110100-
WESTERN AND SOUTH CENTRAL KENTUCKY

CITY           SKY/WX    TMP DP  RH WIND       PRES   REMARKS
PADUCAH        MOSUNNY   82  65  56 NE5       30.06R
HENDERSON      MOSUNNY   81  61  50 N3        30.07R
OWENSBORO      PTSUNNY   83  58  42 N5        30.08R
HOPKINSVILLE   MOSUNNY   81  64  56 N7        30.07R
BOWLING GREEN  SUNNY     83  59  44 NW7       30.07R
GLASGOW        PTSUNNY   81  62  52 CALM      30.08R
$$

KYZ024-025-028>034-038-045-046-053-110100-
NORTH CENTRAL KENTUCKY

CITY           SKY/WX    TMP DP  RH WIND       PRES   REMARKS
LOUISVILLE/SDF MOSUNNY   83  54  36 NE13      30.07R
LOUISVILLE/LOU SUNNY     83  54  36 NE9       30.08R
FORT KNOX      SUNNY     80  63  54 NW5       30.07R
$$

KYZ035>037-039>044-047>052-055>060-089>105-110100-
NORTHEAST KENTUCKY

CITY           SKY/WX    TMP DP  RH WIND       PRES   REMARKS
LEXINGTON      SUNNY     82  59  45 N7        30.10R
COVINGTON      MOSUNNY   79  54  41 N10       30.10R
FRANKFORT      SUNNY     82  56  40 N7        30.08R
$$

KYZ054-064>069-076>088-106>120-110100-
SOUTHEAST KENTUCKY

CITY           SKY/WX    TMP DP  RH WIND       PRES   REMARKS
JACKSON        CLEAR     79  57  46 VRB3      30.10R
LONDON         MOCLDY    82  63  52 N6        30.09R
SOMERSET       SUNNY     81  57  44 N7        30.09R
MIDDLESBORO    MOCLDY    81  65  59 CALM      30.08R
MONTICELLO     PTCLDY    82  65  56 N7        30.09R
$$




USA.gov is the U.S. government's official web portal to all federal, state and local government web resources and services.